[[{"header":{"parameterUnit":"m.s-1","parameterCategory":1,"la1":30.2991,"la2":30.254,"lo1":-89.0895,"lo2":-89.0444,"dy":0.0017,"dx":0.0017,"nx":28,"ny":28,"refTime":"2024-07-26T09:00:00:Z","depth":0,"parameterNumber":2,"parameterNumberName":"U-component_of_WINDS"},"data":[0,0,0,0,0,0,0,0,0,0,0,0,0,0,0,0,0,0,0,0,0,0,0,0,0,0,0,0,0,0,0,0,0,0,0,0,0,0,0,0,0,0,0,0,0,0,0,0,0,0,0,0,0,0,0,0,0,0,-1.6597,-1.6597,0,-1.6587,-1.6587,-1.6587,-1.6534,-1.6532,-1.6531,-1.653,-1.6521,-1.6522,-1.6523,0,0,0,0,0,0,0,0,0,0,0,0,0,-1.6573,-1.6574,-1.6597,-1.6597,-1.6597,-1.6587,-1.6587,-1.6587,-1.6534,-1.6532,-1.6531,-1.6529,-1.652,-1.6522,-1.6523,0,0,0,0,0,0,0,0,0,0,0,0,0,-1.6575,-1.6574,-1.6597,-1.6569,-1.6567,-1.6587,-1.6587,-1.6587,-1.6534,-1.6532,-1.6531,-1.6529,-1.652,-1.6521,-1.6523,-1.6569,0,0,-1.6527,-1.6528,0,0,0,0,0,0,0,0,-1.6575,-1.6576,-1.6574,-1.6571,-1.6569,-1.656,-1.6575,-1.6581,-1.6535,-1.6547,-1.653,-1.6528,-1.6535,-1.6535,-1.6538,-1.6569,-1.6568,-1.6527,-1.6528,-1.6529,-1.6529,0,0,0,0,0,0,0,-1.6575,-1.6576,-1.6593,-1.6574,-1.6571,-1.6558,-1.6556,-1.6576,-1.6552,-1.6546,-1.6542,-1.6541,-1.6534,-1.6536,-1.6537,-1.6568,-1.6527,-1.6528,-1.6529,-1.653,-1.6637,-1.6639,0,0,0,0,0,0,-1.6579,-1.6576,-1.6593,-1.6593,-1.6567,-1.656,-1.6558,-1.6564,-1.6551,-1.6548,-1.6543,-1.6539,-1.6535,-1.6535,-1.6536,-1.659,-1.6529,-1.653,-1.6531,-1.6635,-1.6637,-1.6639,0,0,0,0,0,0,-1.6578,-1.6581,-1.6594,-1.6584,-1.6584,-1.6562,-1.657,-1.6565,-1.6568,-1.6549,-1.6545,-1.655,-1.6533,-1.6534,-1.6561,-1.6588,-1.653,-1.6532,-1.6632,-1.6636,-1.6638,-1.6697,0,0,0,0,0,0,-1.6578,-1.6581,-1.6598,-1.6584,-1.6585,-1.6619,-1.6572,-1.6566,-1.657,-1.6565,-1.6555,-1.6551,-1.6532,-1.6559,-1.6563,-1.6589,-1.6533,-1.663,-1.6634,-1.6637,-1.6692,-1.6701,-1.6709,0,0,0,0,0,-1.6577,-1.6615,-1.6599,-1.6601,-1.6606,-1.662,-1.6621,-1.6597,-1.6573,-1.659,-1.6578,-1.6552,-1.6585,-1.6563,-1.6566,-1.6593,-1.6628,-1.6633,-1.6637,-1.6688,-1.6699,-1.6709,0,0,0,0,0,0,-1.6633,-1.6613,-1.6595,-1.6629,-1.6627,-1.6611,-1.6632,-1.661,-1.6615,-1.661,-1.6581,-1.6579,-1.661,-1.6604,-1.658,-1.6638,-1.6602,-1.6608,-1.664,-1.665,-1.6659,-1.6659,-1.6534,0,0,0,0,0,-1.6649,-1.6662,-1.6644,-1.6676,-1.6676,-1.6654,-1.666,-1.6642,-1.6639,-1.6637,-1.6627,-1.6625,-1.6635,-1.6643,-1.6651,-1.6691,-1.6688,-1.6712,-1.672,-1.6727,-1.6732,-1.6753,-1.6763,-1.6654,-1.6654,-1.6654,0,0,-1.6682,-1.6673,-1.6683,-1.6687,-1.6683,-1.6697,-1.6654,-1.6671,-1.6682,-1.664,-1.6665,-1.6657,-1.6653,-1.6687,-1.6702,-1.6683,-1.6762,-1.6733,-1.6739,-1.674,-1.6759,-1.6769,-1.6778,-1.6657,-1.6657,-1.6656,0,0,-1.6751,-1.6745,-1.6771,-1.6768,-1.6763,-1.6748,-1.6755,-1.6743,-1.6736,-1.676,-1.673,-1.6742,-1.676,-1.6758,-1.676,-1.6828,-1.6804,-1.6832,-1.6876,-1.6897,-1.6905,-1.6913,-1.6937,-1.6946,-1.6837,-1.6837,-1.6837,0,-1.6794,-1.6814,-1.6788,-1.6807,-1.681,-1.6773,-1.6799,-1.6797,-1.6795,-1.6798,-1.6778,-1.6799,-1.6794,-1.6827,-1.6844,-1.6846,-1.6853,-1.6833,-1.6906,-1.6913,-1.692,-1.6943,-1.6952,-1.684,-1.684,-1.684,-1.6839,0,-1.6866,-1.6881,-1.6903,-1.6901,-1.6906,-1.6929,-1.6907,-1.6916,-1.6898,-1.6886,-1.6911,-1.6903,-1.6909,-1.6916,-1.6898,-1.6946,-1.6935,-1.6911,-1.6875,-1.6934,-1.6955,-1.6964,-1.6845,-1.6844,-1.6843,-1.6842,0,0,-1.697,-1.6953,-1.6962,-1.696,-1.6952,-1.6962,-1.6984,-1.6989,-1.6997,-1.6997,-1.7014,-1.7031,-1.7008,-1.701,-1.6992,-1.7011,-1.7065,-1.6984,-1.6983,-1.6999,-1.7118,-1.7136,-1.7146,-1.705,-1.7051,-1.7052,-1.7118,0,-1.7035,-1.707,-1.7047,-1.7086,-1.7099,-1.7064,-1.7083,-1.708,-1.7069,-1.7079,-1.7068,-1.708,-1.7049,-1.705,-1.7066,-1.7055,-1.7089,-1.705,-1.7066,-1.7066,-1.7067,-1.7157,-1.7176,-1.7239,-1.7126,-1.7127,-1.7128,0,-1.7116,-1.7119,-1.7159,-1.7147,-1.7152,-1.7169,-1.7172,-1.7182,-1.7178,-1.7169,-1.7172,-1.7149,-1.717,-1.7135,-1.7163,-1.7137,-1.7142,-1.7138,-1.714,-1.714,-1.7101,-1.716,-1.7258,-1.7267,-1.7141,-1.714,-1.7139,0,-1.7187,-1.7201,-1.7226,-1.7227,-1.7214,-1.7227,-1.7222,-1.7216,-1.7221,-1.7224,-1.7227,-1.7233,-1.7236,-1.7241,-1.7222,-1.7198,-1.7252,-1.7215,-1.7246,-1.7246,-1.7259,-1.7258,-1.7359,-1.7263,-1.7262,-1.7262,-1.7262,0,-1.7262,-1.7288,-1.7258,-1.7274,-1.7302,-1.7276,-1.7305,-1.7296,-1.7292,-1.7305,-1.7276,-1.729,-1.7263,-1.7274,-1.7259,-1.7284,-1.7286,-1.728,-1.7275,-1.7282,-1.7283,-1.7285,-1.728,-1.7265,-1.7264,-1.7264,-1.7263,0,-1.7347,-1.7327,-1.7353,-1.7339,-1.7336,-1.7357,-1.7345,-1.736,-1.7347,-1.7365,-1.7368,-1.7349,-1.736,-1.7341,-1.735,-1.734,-1.7376,-1.7365,-1.7377,-1.7374,-1.7405,-1.7403,-1.7511,-1.7524,-1.7419,-1.742,-1.7421,0,-1.7396,-1.7415,-1.7403,-1.7409,-1.7406,-1.7418,-1.7423,-1.7398,-1.7404,-1.7401,-1.7416,-1.7425,-1.7431,-1.7451,-1.7439,-1.7446,-1.7435,-1.7472,-1.7436,-1.7442,-1.7435,-1.7434,-1.7436,-1.748,-1.7481,-1.7482,-1.7483,0,-1.7486,-1.7475,-1.7482,-1.7487,-1.7493,-1.7495,-1.7496,-1.7503,-1.7477,-1.7486,-1.7497,-1.7502,-1.7511,-1.7521,-1.7525,-1.7521,-1.7498,-1.7494,-1.7502,-1.7509,-1.7515,-1.7512,-1.7397,-1.7492,-1.7491,-1.749,-1.749,-1.7489,-1.7554,-1.7569,-1.7563,-1.7572,-1.7569,-1.757,-1.7583,-1.7572,-1.7581,-1.7586,-1.7571,-1.7586,-1.7582,-1.7585,-1.7583,-1.7595,-1.7579,-1.7589,-1.7592,-1.7595,-1.76,-1.7513,-1.7596,-1.7595,-1.7595,-1.7595,-1.7595,0,-1.7642,-1.7636,-1.7645,-1.7646,-1.7653,-1.763,-1.763,-1.7638,-1.7651,-1.7649,-1.7655,-1.7668,-1.7677,-1.7665,-1.7672,-1.7684,-1.7674,-1.7687,-1.7686,-1.7685,-1.7614,-1.7607,-1.7695,-1.7695,-1.7695,-1.7695,-1.7695,-1.7695,-1.7689,-1.7713,-1.7702,-1.7725,-1.7719,-1.7733,-1.7734,-1.7735,-1.7733,-1.7749,-1.7756,-1.7748,-1.7742,-1.7748,-1.7756,-1.7752,-1.7756,-1.7773,-1.7766,-1.77,-1.769,-1.7681,-1.7674,-1.7774,-1.7774,-1.7835,-1.7836,-1.7836]},{"header":{"parameterUnit":"m.s-1","parameterCategory":1,"la1":30.2991,"la2":30.254,"lo1":-89.0895,"lo2":-89.0444,"dy":0.0017,"dx":0.0017,"nx":28,"ny":28,"refTime":"2024-07-26T09:00:00:Z","depth":0,"parameterNumber":3,"parameterNumberName":"V-component_of_WINDS"},"data":[0,0,0,0,0,0,0,0,0,0,0,0,0,0,0,0,0,0,0,0,0,0,0,0,0,0,0,0,0,0,0,0,0,0,0,0,0,0,0,0,0,0,0,0,0,0,0,0,0,0,0,0,0,0,0,0,0,0,2.6109,2.6109,0,2.6149,2.6149,2.615,2.615,2.6149,2.6149,2.6148,2.6188,2.6189,2.6191,0,0,0,0,0,0,0,0,0,0,0,0,0,2.603,2.6032,2.6109,2.6109,2.611,2.6149,2.615,2.615,2.615,2.6149,2.6149,2.6148,2.6187,2.6189,2.6191,0,0,0,0,0,0,0,0,0,0,0,0,0,2.6067,2.6032,2.6109,2.6115,2.6115,2.6149,2.615,2.615,2.615,2.6149,2.6148,2.6148,2.6186,2.6189,2.6191,2.6221,0,0,2.6198,2.6199,0,0,0,0,0,0,0,0,2.6065,2.607,2.6113,2.6114,2.6115,2.6144,2.6136,2.6174,2.615,2.6137,2.6148,2.6147,2.6173,2.6177,2.6186,2.6223,2.6224,2.6198,2.62,2.6201,2.6201,0,0,0,0,0,0,0,2.6062,2.6068,2.6125,2.6114,2.6115,2.6115,2.6119,2.6143,2.6159,2.6138,2.6138,2.6143,2.6174,2.6184,2.6187,2.6225,2.6198,2.62,2.6202,2.6203,2.6288,2.6289,0,0,0,0,0,0,2.6059,2.6066,2.6123,2.6126,2.6088,2.6117,2.6121,2.6135,2.6159,2.6162,2.6143,2.6143,2.618,2.6184,2.6188,2.6225,2.6201,2.6203,2.6204,2.6287,2.6288,2.6289,0,0,0,0,0,0,2.6057,2.6064,2.6122,2.6096,2.6103,2.6119,2.6134,2.6136,2.6146,2.6163,2.6166,2.6151,2.618,2.6185,2.6213,2.6226,2.6204,2.6206,2.6286,2.6287,2.6288,2.6297,0,0,0,0,0,0,2.6055,2.6063,2.6075,2.6096,2.6105,2.6146,2.6135,2.6138,2.6151,2.615,2.6171,2.6173,2.618,2.6209,2.6215,2.6229,2.6208,2.6285,2.6286,2.6288,2.6296,2.6299,2.6301,0,0,0,0,0,2.6052,2.6076,2.6076,2.6083,2.612,2.6147,2.6152,2.6159,2.6152,2.6163,2.6174,2.6173,2.6224,2.6212,2.6219,2.6233,2.6284,2.6286,2.6288,2.6295,2.6298,2.6301,0,0,0,0,0,0,2.6056,2.6079,2.6079,2.6111,2.6127,2.6147,2.6162,2.6163,2.6181,2.618,2.6187,2.6192,2.622,2.6229,2.6216,2.6263,2.6253,2.6256,2.6256,2.6259,2.6262,2.6259,2.621,0,0,0,0,0,2.606,2.6081,2.61,2.6126,2.6134,2.6147,2.6159,2.6163,2.618,2.6187,2.6199,2.6215,2.6235,2.6248,2.6267,2.6297,2.6302,2.6311,2.6313,2.6315,2.6318,2.6335,2.6339,2.6295,2.6295,2.6295,0,0,2.607,2.6085,2.6097,2.6127,2.614,2.616,2.6152,2.6174,2.619,2.619,2.6217,2.6227,2.6245,2.6274,2.6288,2.6283,2.6331,2.6318,2.6319,2.6321,2.6337,2.6341,2.6345,2.6297,2.6296,2.6296,0,0,2.6097,2.6111,2.6134,2.6148,2.6168,2.6176,2.6181,2.6202,2.6208,2.6236,2.6236,2.6254,2.6288,2.6301,2.6312,2.6344,2.6343,2.635,2.6364,2.638,2.6383,2.6386,2.6397,2.6401,2.6353,2.6353,2.6353,0,2.6107,2.6138,2.6146,2.6168,2.6181,2.6182,2.6205,2.6218,2.6243,2.6251,2.6246,2.6288,2.6301,2.6333,2.6341,2.635,2.6356,2.6347,2.6382,2.6385,2.6388,2.6399,2.6403,2.6353,2.6353,2.6353,2.6353,0,2.6148,2.617,2.6186,2.621,2.6225,2.6247,2.6258,2.6272,2.6275,2.6283,2.6311,2.6326,2.6348,2.6356,2.6359,2.6388,2.6385,2.6381,2.637,2.6393,2.6403,2.6407,2.6354,2.6354,2.6354,2.6354,0,0,2.6179,2.6208,2.6214,2.6225,2.6247,2.6263,2.6286,2.6308,2.6319,2.6336,2.6355,2.6383,2.638,2.6392,2.6396,2.641,2.6435,2.6405,2.6405,2.6409,2.6468,2.6471,2.6475,2.6434,2.6435,2.6436,2.6466,0,2.6209,2.6249,2.6257,2.6292,2.6311,2.6313,2.6332,2.6348,2.6356,2.6374,2.6383,2.6403,2.6397,2.6404,2.6419,2.6429,2.6446,2.6427,2.6451,2.6452,2.6446,2.6481,2.6484,2.6512,2.647,2.6471,2.6471,0,2.6249,2.6268,2.6305,2.6324,2.6333,2.635,2.637,2.6387,2.6405,2.641,2.6424,2.6427,2.6449,2.6438,2.6469,2.6455,2.6466,2.6472,2.6473,2.6476,2.6463,2.6484,2.6521,2.6525,2.6478,2.6477,2.6477,0,2.6268,2.6302,2.6329,2.6338,2.6361,2.6373,2.6383,2.64,2.6412,2.643,2.6438,2.6458,2.6469,2.6484,2.6492,2.6483,2.6522,2.6512,2.6527,2.6527,2.6535,2.6534,2.6574,2.6542,2.6542,2.6542,2.6542,0,2.6301,2.6323,2.6337,2.6353,2.6378,2.6387,2.6411,2.6421,2.6435,2.6453,2.6455,2.6472,2.6481,2.6499,2.6505,2.6529,2.6534,2.6539,2.654,2.6539,2.6538,2.6545,2.6544,2.6543,2.6543,2.6542,2.6542,0,2.6326,2.6336,2.6365,2.6385,2.639,2.6408,2.6424,2.644,2.6448,2.647,2.6476,2.6489,2.651,2.652,2.6545,2.6549,2.6577,2.6577,2.6572,2.6572,2.6586,2.6585,2.6632,2.6639,2.6602,2.6603,2.6603,0,2.6346,2.6363,2.6384,2.6397,2.6407,2.6427,2.644,2.6448,2.6462,2.6482,2.6495,2.6516,2.6534,2.6567,2.6578,2.6598,2.6598,2.6614,2.6601,2.6599,2.6598,2.6597,2.6599,2.6616,2.6616,2.6616,2.6617,0,2.638,2.6384,2.6403,2.6424,2.6439,2.6455,2.6472,2.6481,2.6492,2.6507,2.6529,2.6542,2.6568,2.6589,2.6609,2.6619,2.662,2.662,2.6625,2.6623,2.6619,2.6621,2.6577,2.6619,2.6619,2.6619,2.6619,2.6619,2.6403,2.6418,2.6436,2.6456,2.6469,2.6484,2.65,2.651,2.6529,2.6551,2.6555,2.6578,2.6594,2.6622,2.6632,2.665,2.6646,2.6653,2.6654,2.6656,2.6656,2.6617,2.6654,2.6653,2.6653,2.6653,2.6653,0,2.6437,2.6448,2.6467,2.649,2.6506,2.6505,2.6523,2.6537,2.6557,2.6572,2.6589,2.6614,2.6634,2.6647,2.6667,2.6679,2.668,2.6684,2.6683,2.6685,2.6659,2.6653,2.6683,2.6683,2.6683,2.6683,2.6683,2.6683,2.6457,2.6482,2.6489,2.6521,2.6532,2.6555,2.6565,2.6578,2.6591,2.6618,2.6635,2.6644,2.6658,2.6679,2.6698,2.6701,2.6708,2.6713,2.6716,2.669,2.6687,2.6684,2.6679,2.6714,2.6714,2.6741,2.6741,2.6741]}]]